Warsaw, IN

8:23 PM EDT on April 28, 2017 (GMT -0400)
Warsaw Municipal

Weather History for KASW - October, 2011

Change the Weather History Date:

Thursday, October 20, 2011

  Actual Average Record
Temperature  
Mean Temperature 44 °F -  
Max Temperature 46 °F 59 °F 86 °F (1953)
Min Temperature 41 °F 39 °F 24 °F (1952)
Degree Days  
Heating Degree Days 22    
Moisture  
Dew Point 45 °F    
Average Humidity 98    
Maximum Humidity 100    
Minimum Humidity 87    
Precipitation  
Precipitation 0.53 in - - ()
Sea Level Pressure  
Sea Level Pressure 29.42 in    
Wind  
Wind Speed 16 mph (NW)    
Max Wind Speed 24 mph    
Max Gust Speed 36 mph    
Visibility 8 miles    
Events Rain    
Averages and records for this station are not official NWS values.
T = Trace of Precipitation, MM = Missing Value Source: NWS Daily Summary

Daily Weather History Graph

Daily Weather History Graph

Search for Another Location

Airport or City:

Trip Planner

Search our weather history database for the weather conditions in past years. The results will help you decide how hot, cold, wet, or windy it might be!

Date:

Astronomy

Oct. 20, 2011 Rise Set
Actual Time 8:00 AM EDT 6:55 PM EDT
Civil Twilight 7:32 AM EDT 7:23 PM EDT
Nautical Twilight 7:00 AM EDT 7:55 PM EDT
Astronomical Twilight 6:28 AM EDT 8:27 PM EDT
Moon 12:40 AM EDT (10/20) 3:07 PM EDT (10/20)
Length of Visible Light 11h 50m
Length of Day
10h 54m
Last Quarter, 44% of the Moon is Illuminated
Oct 20
Last Quarter
Oct 26
New
Nov 2
First Quarter
Nov 10
Full
Nov 18
Last Quarter

Hourly Weather History & Observations

Time (EDT) Temp. Windchill Dew Point Humidity Pressure Visibility Wind Dir Wind Speed Gust Speed Precip Events Conditions
12:15 AM 42.8 °F 37.5 °F - N/A% 29.32 in 10.0 mi NNW 9.2 mph 23.0 mph 0.03 in Rain Rain
12:35 AM 42.8 °F 34.8 °F - N/A% 29.31 in 10.0 mi NNW 17.3 mph 23.0 mph 0.05 in Rain Rain
12:55 AM 42.8 °F 36.2 °F - N/A% 29.31 in 10.0 mi NNW 12.7 mph 19.6 mph 0.08 in Rain Rain
1:15 AM 42.8 °F 35.4 °F - N/A% 29.30 in 10.0 mi NNW 15.0 mph 24.2 mph 0.01 in Rain Light Rain
1:35 AM 42.8 °F 36.6 °F - N/A% 29.30 in 10.0 mi NNW 11.5 mph 21.9 mph 0.04 in Rain Rain
1:55 AM 42.8 °F 36.2 °F - N/A% 29.30 in 10.0 mi NNW 12.7 mph 23.0 mph 0.06 in Rain Rain
2:15 AM 42.8 °F 35.4 °F - N/A% 29.29 in 10.0 mi NNW 15.0 mph 20.7 mph 0.02 in Rain Rain
2:55 AM 41.0 °F 33.5 °F - N/A% 29.28 in 10.0 mi NNW 13.8 mph 23.0 mph 0.07 in Rain Rain
3:15 AM 41.0 °F 33.9 °F - N/A% 29.28 in 10.0 mi NNW 12.7 mph 19.6 mph 0.02 in Rain Rain
3:35 AM 41.0 °F 32.8 °F - N/A% 29.28 in 10.0 mi NW 16.1 mph 24.2 mph 0.03 in Rain Rain
3:55 AM 41.0 °F 32.5 °F - N/A% 29.28 in 10.0 mi NNW 17.3 mph 25.3 mph 0.06 in Rain Rain
4:15 AM 41.0 °F 32.8 °F - N/A% 29.28 in 10.0 mi NNW 16.1 mph 23.0 mph 0.02 in Rain Rain
4:35 AM 41.0 °F 31.9 °F - N/A% 29.28 in 10.0 mi NNW 19.6 mph 25.3 mph 0.03 in Rain Light Rain
4:55 AM 41.0 °F 33.1 °F - N/A% 29.28 in 10.0 mi NW 15.0 mph 29.9 mph 0.04 in Rain Light Rain
5:55 AM 41.0 °F 31.9 °F - N/A% 29.28 in 10.0 mi NW 19.6 mph 29.9 mph 0.01 in Rain Light Rain
6:15 AM 41.0 °F 32.5 °F - N/A% 29.28 in 10.0 mi NW 17.3 mph 33.4 mph 0.01 in Rain Light Rain
6:35 AM 41.0 °F 32.8 °F - N/A% 29.29 in 10.0 mi NNW 16.1 mph 28.8 mph 0.02 in Rain Light Rain
6:55 AM 41.0 °F 31.9 °F - N/A% 29.29 in 10.0 mi NW 19.6 mph 31.1 mph 0.03 in Rain Rain
7:15 AM 42.8 °F 34.5 °F - N/A% 29.30 in 10.0 mi NW 18.4 mph 31.1 mph 0.01 in Rain Rain
7:35 AM 42.8 °F 34.8 °F - N/A% 29.31 in 10.0 mi NW 17.3 mph 25.3 mph 0.02 in Rain Light Rain
7:55 AM 42.8 °F 35.8 °F - N/A% 29.31 in 10.0 mi NNW 13.8 mph 24.2 mph 0.03 in Rain Rain
8:15 AM 42.8 °F 34.5 °F - N/A% 29.32 in 10.0 mi NW 18.4 mph 27.6 mph 0.01 in Rain Light Rain
8:35 AM 42.8 °F 35.8 °F - N/A% 29.33 in 10.0 mi NW 13.8 mph 27.6 mph 0.01 in Rain Rain
8:55 AM 42.8 °F 35.1 °F - N/A% 29.34 in 7.0 mi NW 16.1 mph 25.3 mph 0.01 in Rain Light Rain
9:15 AM 42.8 °F 35.1 °F - N/A% 29.34 in 7.0 mi NW 16.1 mph 26.5 mph 0.01 in Rain Light Rain
9:35 AM 42.8 °F 35.1 °F - N/A% 29.35 in 5.0 mi NW 16.1 mph 24.2 mph 0.01 in Rain Light Rain
9:55 AM 44.6 °F 37.2 °F - N/A% 29.36 in 5.0 mi NW 17.3 mph 27.6 mph 0.01 in Rain Light Rain
10:15 AM 44.6 °F 36.6 °F - N/A% 29.38 in 10.0 mi NW 19.6 mph 25.3 mph N/A Rain Light Rain
10:35 AM 44.6 °F 37.8 °F - N/A% 29.40 in 7.0 mi NW 15.0 mph 23.0 mph 0.01 in Rain Light Rain
10:55 AM 44.6 °F 38.4 °F - N/A% 29.41 in 7.0 mi NW 12.7 mph 24.2 mph 0.01 in Rain Rain
11:15 AM 44.6 °F 37.4 °F - N/A% 29.41 in 10.0 mi NW 16.1 mph 21.9 mph N/A Rain Light Rain
11:35 AM 44.6 °F 38.1 °F 44.6 °F 100% 29.42 in 10.0 mi NW 13.8 mph 24.2 mph N/A   Overcast
11:55 AM 44.6 °F 38.8 °F 44.6 °F 100% 29.43 in 10.0 mi NNW 11.5 mph 27.6 mph N/A   Overcast
12:15 PM 46.4 °F 40.7 °F 42.8 °F 87% 29.44 in 10.0 mi NW 12.7 mph 23.0 mph N/A   Overcast
12:35 PM 46.4 °F 40.4 °F 44.6 °F 93% 29.44 in 5.0 mi NW 13.8 mph 18.4 mph N/A Rain Rain
12:55 PM 44.6 °F 38.8 °F - N/A% 29.45 in 3.0 mi NW 11.5 mph 20.7 mph 0.01 in Rain Light Rain
1:15 PM 46.4 °F 40.7 °F - N/A% 29.46 in 4.0 mi NW 12.7 mph 18.4 mph 0.01 in Rain Rain
1:35 PM 46.4 °F 38.1 °F - N/A% 29.46 in 7.0 mi NW 24.2 mph 29.9 mph 0.01 in Rain Light Rain
1:55 PM 46.4 °F 39.5 °F 46.4 °F 100% 29.48 in 7.0 mi NW 17.3 mph 27.6 mph 0.02 in Rain Light Rain
2:15 PM 44.6 °F 36.9 °F - N/A% 29.48 in 5.0 mi WNW 18.4 mph 27.6 mph 0.01 in Rain Light Rain
2:35 PM 44.6 °F 36.9 °F - N/A% 29.50 in 5.0 mi NW 18.4 mph 27.6 mph 0.03 in Rain Light Rain
2:55 PM 46.4 °F 39.8 °F - N/A% 29.51 in 5.0 mi WNW 16.1 mph 26.5 mph 0.04 in Rain Light Rain
3:15 PM 46.4 °F 38.7 °F - N/A% 29.52 in 7.0 mi WNW 20.7 mph 29.9 mph N/A Rain Light Rain
3:35 PM 46.4 °F 38.5 °F 46.4 °F 100% 29.53 in 7.0 mi NW 21.9 mph 31.1 mph N/A Rain Light Rain
3:55 PM 46.4 °F 39.2 °F - N/A% 29.55 in 4.0 mi WNW 18.4 mph 31.1 mph N/A Rain Light Rain
4:15 PM 46.4 °F 38.1 °F - N/A% 29.56 in 5.0 mi WNW 24.2 mph 35.7 mph N/A Rain Rain
4:35 PM 44.6 °F 36.4 °F 44.6 °F 100% 29.58 in 7.0 mi WNW 20.7 mph 33.4 mph 0.01 in Rain Light Rain
4:55 PM 44.6 °F 35.9 °F - N/A% 29.59 in 7.0 mi WNW 23.0 mph 28.8 mph 0.02 in Rain Light Rain
5:15 PM 44.6 °F 36.1 °F 44.6 °F 100% 29.62 in 10.0 mi WNW 21.9 mph 34.5 mph 0.01 in Rain Light Rain
5:35 PM 44.6 °F 35.9 °F 44.6 °F 100% 29.63 in 10.0 mi WNW 23.0 mph 29.9 mph 0.01 in Rain Light Rain
5:55 PM 42.8 °F 33.8 °F 42.8 °F 100% 29.65 in 7.0 mi WNW 21.9 mph 28.8 mph 0.01 in Rain Rain
6:15 PM 42.8 °F 34.8 °F - N/A% 29.67 in 7.0 mi West 17.3 mph 24.2 mph 0.01 in Rain Light Rain
6:35 PM 42.8 °F 34.3 °F - N/A% 29.68 in 5.0 mi West 19.6 mph 23.0 mph 0.01 in Rain Light Rain
6:55 PM 42.8 °F 34.0 °F - N/A% 29.70 in 7.0 mi West 20.7 mph 27.6 mph 0.02 in Rain Rain
7:15 PM 42.8 °F 34.8 °F - N/A% 29.71 in 7.0 mi West 17.3 mph 23.0 mph N/A   Light Drizzle
7:35 PM 42.8 °F 34.8 °F - N/A% 29.73 in 7.0 mi West 17.3 mph 25.3 mph N/A   Light Drizzle
7:55 PM 42.8 °F 35.1 °F - N/A% 29.74 in 7.0 mi West 16.1 mph 21.9 mph N/A   Light Drizzle
8:15 PM 42.8 °F 35.1 °F - N/A% 29.75 in 5.0 mi West 16.1 mph 24.2 mph N/A   Light Drizzle
8:55 PM 42.8 °F 35.4 °F - N/A% 29.77 in 4.0 mi West 15.0 mph 19.6 mph 0.01 in Rain Light Rain
9:15 PM 42.8 °F 35.4 °F - N/A% 29.77 in 4.0 mi West 15.0 mph 20.7 mph N/A   Drizzle
9:35 PM 42.8 °F 35.1 °F - N/A% 29.78 in 4.0 mi West 16.1 mph 20.7 mph N/A Rain Rain
9:55 PM 42.8 °F 36.2 °F - N/A% 29.79 in 5.0 mi West 12.7 mph 19.6 mph 0.01 in Rain Rain
10:15 PM 42.8 °F 35.1 °F - N/A% 29.80 in 5.0 mi West 16.1 mph 19.6 mph N/A   Unknown
10:35 PM 42.8 °F 35.8 °F - N/A% 29.81 in 3.0 mi West 13.8 mph 20.7 mph N/A   Light Drizzle
10:55 PM 42.8 °F 35.4 °F - N/A% 29.82 in 4.0 mi West 15.0 mph - N/A Rain Light Rain
11:15 PM 42.8 °F 37.0 °F - N/A% 29.83 in 3.0 mi West 10.4 mph - N/A   Drizzle
11:35 PM 42.8 °F 36.2 °F - N/A% 29.83 in 3.0 mi West 12.7 mph - N/A   Drizzle